Regional Weather Roundup
Issued by NWS

Home | Current Version | Previous Version | Graphics & Text | Print | Product List | Glossary On
Versions: 1 2 3 4 5 6 7 8 9 10 11 12 13 14 15 16 17 18 19 20 21 22 23 24 25 26 27 28
000
ASUS45 KCYS 271310
RWRWY

WYOMING REGIONAL WEATHER ROUNDUP
NATIONAL WEATHER SERVICE CHEYENNE WY
700 AM MDT THU APR 27 2017

NOTE:  "FAIR" INDICATES FEW OR NO CLOUDS BELOW 12,000 FEET
WITH NO SIGNIFICANT WEATHER AND/OR OBSTRUCTIONS TO VISIBILITY.

WYZ001-271400-
YELLOWSTONE NATIONAL PARK

CITY           SKY/WX    TMP DP  RH WIND       PRES   REMARKS
LK YELLOWSTONE   N/A     27  26  96 CALM      29.59R
W YELLOWSTONE  NOT AVBL

$$
WYZ002>013-054>058-071-098>099-271400-
NORTHERN WYOMING

CITY           SKY/WX    TMP DP  RH WIND       PRES   REMARKS
JACKSON        SNOW      32  30  93 SE3       29.59R VSB 1/2
CODY           LGT RAIN  35  33  92 N6        29.57S WCI  30
GREYBULL       CLOUDY    40  36  86 NW14      29.54R WCI  32
WORLAND        CLOUDY    41  38  89 N8        29.53R
SHERIDAN       FOG       32  32 100 CALM      29.58R VSB 1/4
BUFFALO        FAIR      31  27  85 NW5       29.54F WCI  26
GILLETTE       CLOUDY    34  32  92 S9        29.55S WCI  27
HULETT         FAIR      34  28  80 CALM      29.59R
NEWCASTLE      PTSUNNY   30  30 100 SE5       29.60R WCI  25

$$
WYZ014>020-022>026-101>103-271400-
CENTRAL WYOMING

CITY           SKY/WX    TMP DP  RH WIND       PRES   REMARKS
BIG PINEY      CLOUDY    29  27  92 VRB7      29.60S WCI  22
PINEDALE       PTSUNNY   30  30 100 W6        29.60R WCI  24
DUBOIS         SNOW      30  28  93 NW8       29.53R VSB 1/4 WCI  23
LANDER         FAIR      34  29  82 CALM      29.50S
RIVERTON       FAIR      35  33  92 N5        29.51F WCI  31
CASPER         CLOUDY    40  36  86 S10       29.50F WCI  33
DOUGLAS        LGT RAIN  37  36  96 SE5       29.55S FOG     WCI  33

$$
WYZ021-027>030-104>119-271400-
SOUTHERN WYOMING

CITY           SKY/WX    TMP DP  RH WIND       PRES   REMARKS
EVANSTON       FAIR      28  22  78 W17G25    29.74R WCI  16
KEMMERER         N/A     28  25  86 W21       29.67S WCI  15
FORT BRIDGER   CLOUDY    30  28  92 W18G30    29.72R WCI  18
ROCK SPRINGS   FAIR      32  28  85 W20       29.64R WCI  20
DIXON            N/A     38  35  90 SW9       29.65R WCI  31
RAWLINS        CLOUDY    35  31  85 SW13G23   29.58S WCI  26
SARATOGA       CLOUDY    36  32  87 NW5       29.62R WCI  32
LARAMIE        LGT SNOW  32  32 100 SW5       29.57S VSB 3/4 WCI  27
CHEYENNE       CLOUDY    39  34  82 CALM      29.57F
TORRINGTON     PTSUNNY   38  37  97 E7        29.55R WCI  33
PINE BLUFFS    CLOUDY    41  37  87 SW6       29.59R

$$




USA.gov is the U.S. government's official web portal to all federal, state and local government web resources and services.